Regional Weather Roundup
Issued by NWS

Home | Current Version | Previous Version | Graphics & Text | Print | Product List | Glossary On
Versions: 1 2 3 4 5 6 7 8 9 10 11 12 13 14 15 16 17 18 19 20 21 22 23 24 25 26 27 28 29 30 31 32 33 34 35 36 37 38 39 40 41 42 43 44 45 46 47 48 49 50
000
ASUS43 KBIS 160810
RWRND

NORTH DAKOTA REGIONAL WEATHER ROUNDUP
NATIONAL WEATHER SERVICE BISMARCK ND
300 AM CDT TUE SEP 16 2014

NOTE: "FAIR" INDICATES FEW OR NO CLOUDS BELOW 12,000 FEET WITH NO
SIGNIFICANT WEATHER AND/OR OBSTRUCTIONS TO VISIBILITY.


NDZ001>003-009>011-017-160900-
NORTHWEST NORTH DAKOTA

CITY           SKY/WX    TMP DP  RH WIND       PRES   REMARKS
WILLISTON      CLEAR     36  33  89 CALM      30.05S FOG
MINOT          CLEAR     50  40  68 SW9       30.04F
MINOT AFB      CLEAR     46  40  81 SW8       30.03F
$$

NDZ018>021-031>035-040>046-160900-
SOUTHWEST NORTH DAKOTA

CITY           SKY/WX    TMP DP  RH WIND       PRES   REMARKS
BISMARCK       CLEAR     43  37  79 E3        30.10F
DICKINSON      CLEAR     44  38  79 S12       30.05S
GARRISON         N/A     49  40  71 SW3       30.07S
HETTINGER ARPT CLEAR     44  37  76 SE5       30.08F
$$

NDZ004>008-012>016-024-026-027-054-160900-
NORTHEAST NORTH DAKOTA

CITY           SKY/WX    TMP DP  RH WIND       PRES   REMARKS
GRAND FORKS    CLEAR     43  38  82 SW6       30.05F
GRND FRKS AFB  CLEAR     52  39  61 W12       30.05F
DEVILS LAKE    CLEAR     52  39  62 SW13      30.05F
$$

NDZ022-023-025-028>030-036>039-047>053-160900-
SOUTHEAST NORTH DAKOTA

CITY           SKY/WX    TMP DP  RH WIND       PRES   REMARKS
FARGO          CLEAR     48  38  68 SW12      30.12S
JAMESTOWN      CLEAR     44  37  76 S8        30.11S
$$



USA.gov is the U.S. government's official web portal to all federal, state and local government web resources and services.